Time,TemperatureF,DewpointF,PressureIn,WindDirection,WindDirectionDegrees,WindSpeedMPH,WindSpeedGustMPH,Humidity,HourlyPrecipIn,Conditions,Clouds,dailyrainin,SoftwareType,DateUTC
2013-05-24 00:05:00,63.7,63.7,29.74,SSW,194,0.0,0.0,100,0.00,,,0.00,Wunderground v.1.15,2013-05-24 04:05:00,
2013-05-24 00:10:00,63.9,63.9,29.74,ESE,109,0.0,0.0,100,0.00,,,0.00,Wunderground v.1.15,2013-05-24 04:10:00,
2013-05-24 00:14:00,63.9,63.9,29.74,SE,131,1.0,1.0,100,0.00,,,0.00,Wunderground v.1.15,2013-05-24 04:14:00,
2013-05-24 00:20:00,63.9,63.9,29.74,SW,227,0.0,0.0,100,0.00,,,0.00,Wunderground v.1.15,2013-05-24 04:20:00,
2013-05-24 00:25:00,63.9,63.9,29.74,ENE,71,0.0,0.0,100,0.00,,,0.00,Wunderground v.1.15,2013-05-24 04:25:00,
2013-05-24 00:30:00,63.7,63.7,29.74,SW,220,0.0,0.0,100,0.00,,,0.00,Wunderground v.1.15,2013-05-24 04:30:00,
2013-05-24 00:35:00,63.7,63.7,29.74,South,189,0.0,0.0,100,0.00,,,0.00,Wunderground v.1.15,2013-05-24 04:35:00,
2013-05-24 00:45:00,63.7,63.7,29.73,SSW,202,0.0,1.0,100,0.00,,,0.00,Wunderground v.1.15,2013-05-24 04:45:00,
2013-05-24 00:50:00,63.7,63.7,29.73,SE,128,1.0,2.0,100,0.00,,,0.00,Wunderground v.1.15,2013-05-24 04:50:00,
2013-05-24 00:55:00,63.7,63.7,29.73,SW,236,1.0,2.0,100,0.00,,,0.00,Wunderground v.1.15,2013-05-24 04:55:00,
2013-05-24 01:05:00,63.7,63.7,29.72,WSW,238,0.0,1.0,100,0.00,,,0.00,Wunderground v.1.15,2013-05-24 05:05:00,
2013-05-24 01:10:00,63.7,63.7,29.72,SW,219,0.0,3.0,100,0.00,,,0.01,Wunderground v.1.15,2013-05-24 05:10:00,
2013-05-24 01:15:00,63.7,63.7,29.72,SE,136,1.0,3.0,100,0.00,,,0.01,Wunderground v.1.15,2013-05-24 05:15:00,
2013-05-24 01:25:00,63.5,63.5,29.72,SSW,198,0.0,1.0,100,0.00,,,0.01,Wunderground v.1.15,2013-05-24 05:25:00,
2013-05-24 01:30:00,63.7,63.7,29.71,SSE,148,0.0,0.0,100,0.00,,,0.01,Wunderground v.1.15,2013-05-24 05:30:00,
2013-05-24 01:35:00,63.7,63.7,29.71,SSE,149,0.0,0.0,100,0.00,,,0.01,Wunderground v.1.15,2013-05-24 05:35:00,
2013-05-24 01:44:00,63.5,63.5,29.71,SSE,149,0.0,0.0,100,0.00,,,0.01,Wunderground v.1.15,2013-05-24 05:44:00,
2013-05-24 01:50:00,63.5,63.5,29.71,SSE,150,0.0,0.0,100,0.00,,,0.01,Wunderground v.1.15,2013-05-24 05:50:00,
2013-05-24 01:55:00,63.5,63.5,29.71,SSE,150,0.0,0.0,100,0.00,,,0.01,Wunderground v.1.15,2013-05-24 05:55:00,
2013-05-24 02:00:00,63.5,63.5,29.71,SSE,162,0.0,0.0,100,0.00,,,0.01,Wunderground v.1.15,2013-05-24 06:00:00,
2013-05-24 02:10:00,63.4,63.4,29.71,South,175,0.0,0.0,100,0.00,,,0.01,Wunderground v.1.15,2013-05-24 06:10:00,
2013-05-24 02:15:00,63.4,63.4,29.70,WSW,242,0.0,0.0,100,0.00,,,0.01,Wunderground v.1.15,2013-05-24 06:15:00,
2013-05-24 02:25:00,63.4,63.4,29.70,South,171,1.0,1.0,100,0.00,,,0.01,Wunderground v.1.15,2013-05-24 06:25:00,
2013-05-24 02:30:00,63.4,63.4,29.70,South,171,0.0,0.0,100,0.00,,,0.01,Wunderground v.1.15,2013-05-24 06:30:00,
2013-05-24 02:35:00,63.4,63.4,29.69,SSW,213,0.0,1.0,100,0.00,,,0.01,Wunderground v.1.15,2013-05-24 06:35:00,
2013-05-24 02:40:00,63.2,63.2,29.69,SSW,205,0.0,0.0,100,0.00,,,0.01,Wunderground v.1.15,2013-05-24 06:40:00,
2013-05-24 02:50:00,63.2,63.2,29.69,SSW,205,0.0,0.0,100,0.00,,,0.02,Wunderground v.1.15,2013-05-24 06:50:00,
2013-05-24 02:55:00,63.2,63.2,29.69,SSW,205,0.0,0.0,100,0.00,,,0.02,Wunderground v.1.15,2013-05-24 06:55:00,
2013-05-24 03:00:00,63.2,63.2,29.69,SSW,205,0.0,0.0,100,0.00,,,0.02,Wunderground v.1.15,2013-05-24 07:00:00,
2013-05-24 03:10:00,63.1,63.1,29.68,SSW,205,0.0,0.0,100,0.00,,,0.02,Wunderground v.1.15,2013-05-24 07:10:00,
2013-05-24 03:15:00,63.1,63.1,29.67,SSW,205,0.0,0.0,100,0.00,,,0.02,Wunderground v.1.15,2013-05-24 07:15:00,
2013-05-24 03:20:00,63.1,63.1,29.67,SSW,202,0.0,0.0,100,0.00,,,0.02,Wunderground v.1.15,2013-05-24 07:20:00,
2013-05-24 03:30:00,63.1,63.1,29.67,SSW,202,0.0,0.0,100,0.00,,,0.02,Wunderground v.1.15,2013-05-24 07:30:00,
2013-05-24 03:35:00,63.1,63.1,29.67,SSW,202,0.0,0.0,100,0.00,,,0.02,Wunderground v.1.15,2013-05-24 07:35:00,
2013-05-24 03:40:00,62.9,62.9,29.68,SSW,202,0.0,0.0,100,0.00,,,0.02,Wunderground v.1.15,2013-05-24 07:40:00,
2013-05-24 03:45:00,62.9,62.9,29.67,SSW,202,0.0,0.0,100,0.00,,,0.02,Wunderground v.1.15,2013-05-24 07:45:00,
2013-05-24 03:55:00,62.9,62.9,29.67,SSW,202,0.0,0.0,100,0.00,,,0.02,Wunderground v.1.15,2013-05-24 07:55:00,
2013-05-24 04:00:00,62.7,62.7,29.67,SSW,202,0.0,0.0,100,0.00,,,0.02,Wunderground v.1.15,2013-05-24 08:00:00,
2013-05-24 04:10:00,62.9,62.9,29.67,SSW,202,0.0,0.0,100,0.00,,,0.02,Wunderground v.1.15,2013-05-24 08:10:00,
2013-05-24 04:15:00,62.9,62.9,29.67,SSW,202,0.0,0.0,100,0.00,,,0.02,Wunderground v.1.15,2013-05-24 08:15:00,
2013-05-24 04:20:00,62.7,62.7,29.66,SSW,202,0.0,0.0,100,0.00,,,0.02,Wunderground v.1.15,2013-05-24 08:20:00,
2013-05-24 04:25:00,62.7,62.7,29.66,SSW,202,0.0,0.0,100,0.00,,,0.02,Wunderground v.1.15,2013-05-24 08:25:00,
2013-05-24 04:35:00,62.7,62.7,29.67,SSW,202,0.0,0.0,100,0.00,,,0.02,Wunderground v.1.15,2013-05-24 08:35:00,
2013-05-24 04:40:00,62.7,62.7,29.66,SSW,202,0.0,0.0,100,0.00,,,0.02,Wunderground v.1.15,2013-05-24 08:40:00,
2013-05-24 04:45:00,62.7,62.7,29.66,SSW,202,0.0,0.0,100,0.00,,,0.02,Wunderground v.1.15,2013-05-24 08:45:00,
2013-05-24 04:50:00,62.7,62.7,29.66,SSW,202,0.0,0.0,100,0.00,,,0.02,Wunderground v.1.15,2013-05-24 08:50:00,
2013-05-24 05:00:00,62.6,62.6,29.66,SSW,202,0.0,0.0,100,0.00,,,0.02,Wunderground v.1.15,2013-05-24 09:00:00,
2013-05-24 05:05:00,62.6,62.6,29.66,SSW,202,0.0,0.0,100,0.00,,,0.02,Wunderground v.1.15,2013-05-24 09:05:00,
2013-05-24 05:15:00,62.7,62.7,29.64,SSW,202,0.0,0.0,100,0.00,,,0.02,Wunderground v.1.15,2013-05-24 09:15:00,
2013-05-24 05:20:00,62.7,62.7,29.64,SSW,202,0.0,0.0,100,0.00,,,0.02,Wunderground v.1.15,2013-05-24 09:20:00,
2013-05-24 05:25:00,62.7,62.7,29.64,SSW,202,0.0,0.0,100,0.00,,,0.02,Wunderground v.1.15,2013-05-24 09:25:00,
2013-05-24 05:30:00,62.6,62.6,29.64,SSW,202,0.0,0.0,100,0.00,,,0.02,Wunderground v.1.15,2013-05-24 09:30:00,
2013-05-24 05:40:00,62.4,62.4,29.64,SSW,202,0.0,0.0,100,0.00,,,0.02,Wunderground v.1.15,2013-05-24 09:40:00,
2013-05-24 05:45:00,62.4,62.4,29.64,SSW,202,0.0,0.0,100,0.00,,,0.02,Wunderground v.1.15,2013-05-24 09:45:00,
2013-05-24 05:50:00,62.4,62.4,29.64,SSW,202,0.0,0.0,100,0.00,,,0.02,Wunderground v.1.15,2013-05-24 09:50:00,
2013-05-24 06:00:00,62.4,62.4,29.63,SSW,202,0.0,0.0,100,0.00,,,0.02,Wunderground v.1.15,2013-05-24 10:00:00,
2013-05-24 06:05:00,62.6,62.6,29.63,SSW,202,0.0,0.0,100,0.00,,,0.02,Wunderground v.1.15,2013-05-24 10:05:00,
2013-05-24 06:10:00,62.6,62.6,29.64,SSW,202,0.0,0.0,100,0.00,,,0.02,Wunderground v.1.15,2013-05-24 10:10:00,
2013-05-24 06:20:00,62.4,62.4,29.64,SSW,202,0.0,0.0,100,0.00,,,0.02,Wunderground v.1.15,2013-05-24 10:20:00,
2013-05-24 06:25:00,62.4,62.4,29.65,SSW,202,0.0,0.0,100,0.00,,,0.02,Wunderground v.1.15,2013-05-24 10:25:00,
2013-05-24 06:30:00,62.4,62.4,29.65,SSW,202,0.0,0.0,100,0.00,,,0.02,Wunderground v.1.15,2013-05-24 10:30:00,
2013-05-24 06:39:00,62.6,62.6,29.65,SSW,202,0.0,0.0,100,0.00,,,0.02,Wunderground v.1.15,2013-05-24 10:39:00,
2013-05-24 06:45:00,62.7,62.7,29.66,SSW,202,0.0,0.0,100,0.00,,,0.02,Wunderground v.1.15,2013-05-24 10:45:00,
2013-05-24 06:50:00,62.7,62.7,29.66,SW,217,0.0,1.0,100,0.00,,,0.02,Wunderground v.1.15,2013-05-24 10:50:00,
2013-05-24 06:55:00,62.9,62.9,29.66,WSW,241,0.0,1.0,100,0.00,,,0.02,Wunderground v.1.15,2013-05-24 10:55:00,
2013-05-24 07:05:00,63.2,63.2,29.66,SSE,167,0.0,1.0,100,0.00,,,0.02,Wunderground v.1.15,2013-05-24 11:05:00,
2013-05-24 07:15:00,63.7,63.7,29.66,SSW,198,0.0,1.0,100,0.00,,,0.02,Wunderground v.1.15,2013-05-24 11:15:00,
2013-05-24 07:20:00,63.7,63.7,29.67,SSW,198,0.0,0.0,100,0.00,,,0.02,Wunderground v.1.15,2013-05-24 11:20:00,
2013-05-24 07:25:00,63.9,63.9,29.67,SSW,213,0.0,0.0,100,0.00,,,0.02,Wunderground v.1.15,2013-05-24 11:25:00,
2013-05-24 07:30:00,63.7,63.7,29.67,South,175,0.0,0.0,100,0.00,,,0.02,Wunderground v.1.15,2013-05-24 11:30:00,
2013-05-24 07:40:00,63.7,63.7,29.67,SW,229,0.0,0.0,100,0.00,,,0.02,Wunderground v.1.15,2013-05-24 11:40:00,
2013-05-24 07:45:00,63.7,63.7,29.67,SSW,212,0.0,0.0,100,0.00,,,0.02,Wunderground v.1.15,2013-05-24 11:45:00,
2013-05-24 07:50:00,63.7,63.7,29.67,SE,132,0.0,0.0,100,0.00,,,0.02,Wunderground v.1.15,2013-05-24 11:50:00,
2013-05-24 07:55:00,63.7,63.7,29.68,SSW,206,0.0,0.0,100,0.00,,,0.03,Wunderground v.1.15,2013-05-24 11:55:00,
2013-05-24 08:05:00,63.7,63.7,29.69,SSW,205,0.0,0.0,100,0.00,,,0.03,Wunderground v.1.15,2013-05-24 12:05:00,
2013-05-24 08:10:00,63.9,63.9,29.68,SSW,204,0.0,0.0,100,0.00,,,0.03,Wunderground v.1.15,2013-05-24 12:10:00,
2013-05-24 08:20:00,63.9,63.9,29.69,SSW,204,0.0,0.0,100,0.00,,,0.03,Wunderground v.1.15,2013-05-24 12:20:00,
2013-05-24 08:25:00,64.0,64.0,29.69,SSW,205,0.0,0.0,100,0.00,,,0.03,Wunderground v.1.15,2013-05-24 12:25:00,
2013-05-24 08:30:00,64.0,64.0,29.69,SSW,205,0.0,0.0,100,0.00,,,0.03,Wunderground v.1.15,2013-05-24 12:30:00,
2013-05-24 08:35:00,64.0,64.0,29.69,SSW,194,0.0,0.0,100,0.00,,,0.03,Wunderground v.1.15,2013-05-24 12:35:00,
2013-05-24 08:45:00,64.0,64.0,29.70,West,260,0.0,1.0,100,0.00,,,0.03,Wunderground v.1.15,2013-05-24 12:45:00,
2013-05-24 08:50:00,64.0,64.0,29.70,WSW,247,0.0,0.0,100,0.00,,,0.03,Wunderground v.1.15,2013-05-24 12:50:00,
2013-05-24 08:55:00,64.2,64.2,29.70,SW,223,0.0,0.0,100,0.00,,,0.03,Wunderground v.1.15,2013-05-24 12:55:00,
2013-05-24 09:05:00,64.3,64.3,29.70,ESE,107,0.0,0.0,100,0.00,,,0.03,Wunderground v.1.15,2013-05-24 13:05:00,
2013-05-24 09:10:00,64.3,64.3,29.70,SSW,208,0.0,0.0,100,0.00,,,0.03,Wunderground v.1.15,2013-05-24 13:10:00,
2013-05-24 09:20:00,64.5,64.5,29.70,SSW,208,0.0,0.0,100,0.00,,,0.03,Wunderground v.1.15,2013-05-24 13:20:00,
2013-05-24 09:25:00,64.7,64.7,29.70,SSW,208,0.0,0.0,100,0.00,,,0.03,Wunderground v.1.15,2013-05-24 13:25:00,
2013-05-24 09:30:00,64.8,64.8,29.70,SSW,205,0.0,0.0,100,0.00,,,0.03,Wunderground v.1.15,2013-05-24 13:30:00,
2013-05-24 09:40:00,65.3,65.3,29.70,SSW,208,0.0,2.0,100,0.00,,,0.03,Wunderground v.1.15,2013-05-24 13:40:00,
2013-05-24 09:45:00,65.6,65.6,29.70,South,169,0.0,2.0,100,0.00,,,0.03,Wunderground v.1.15,2013-05-24 13:45:00,
2013-05-24 09:50:00,65.8,65.8,29.70,SSW,197,1.0,1.0,100,0.00,,,0.03,Wunderground v.1.15,2013-05-24 13:50:00,
2013-05-24 09:55:00,65.8,65.8,29.69,SSW,197,0.0,1.0,100,0.00,,,0.03,Wunderground v.1.15,2013-05-24 13:55:00,
2013-05-24 10:05:00,66.0,66.0,29.70,SSW,208,0.0,1.0,100,0.00,,,0.03,Wunderground v.1.15,2013-05-24 14:05:00,
2013-05-24 10:10:00,66.1,66.1,29.70,SSW,210,0.0,0.0,100,0.00,,,0.03,Wunderground v.1.15,2013-05-24 14:10:00,
2013-05-24 10:20:00,66.1,66.1,29.70,ESE,116,0.0,0.0,100,0.00,,,0.03,Wunderground v.1.15,2013-05-24 14:20:00,
2013-05-24 10:25:00,66.0,66.0,29.70,NNE,13,0.0,1.0,100,0.00,,,0.03,Wunderground v.1.15,2013-05-24 14:25:00,
2013-05-24 10:30:00,65.5,65.5,29.70,NNW,337,0.0,0.0,100,0.00,,,0.03,Wunderground v.1.15,2013-05-24 14:30:00,
2013-05-24 10:35:00,64.8,64.8,29.70,West,274,0.0,0.0,100,0.00,,,0.03,Wunderground v.1.15,2013-05-24 14:35:00,
2013-05-24 10:45:00,64.5,64.5,29.70,West,274,0.0,0.0,100,0.00,,,0.03,Wunderground v.1.15,2013-05-24 14:45:00,
2013-05-24 10:50:00,64.8,64.8,29.70,West,274,0.0,0.0,100,0.00,,,0.03,Wunderground v.1.15,2013-05-24 14:50:00,
2013-05-24 10:55:00,64.7,64.7,29.71,West,274,0.0,0.0,100,0.00,,,0.03,Wunderground v.1.15,2013-05-24 14:55:00,
2013-05-24 11:00:00,64.5,64.5,29.72,West,274,0.0,0.0,100,0.00,,,0.03,Wunderground v.1.15,2013-05-24 15:00:00,
2013-05-24 11:10:00,62.7,61.2,29.73,East,88,1.0,1.0,95,0.00,,,0.03,Wunderground v.1.15,2013-05-24 15:10:00,
2013-05-24 11:15:00,61.6,59.9,29.73,NNW,336,1.0,6.0,94,0.00,,,0.03,Wunderground v.1.15,2013-05-24 15:15:00,
2013-05-24 11:25:00,59.9,57.3,29.74,ENE,73,1.0,3.0,91,0.00,,,0.03,Wunderground v.1.15,2013-05-24 15:25:00,
2013-05-24 11:30:00,59.2,56.9,29.74,SW,234,1.0,1.0,92,0.00,,,0.03,Wunderground v.1.15,2013-05-24 15:30:00,
2013-05-24 11:35:00,58.7,56.7,29.74,SE,146,1.0,1.0,93,0.00,,,0.03,Wunderground v.1.15,2013-05-24 15:35:00,
2013-05-24 11:40:00,58.4,55.8,29.75,NE,43,0.0,0.0,91,0.00,,,0.03,Wunderground v.1.15,2013-05-24 15:40:00,
2013-05-24 11:50:00,58.4,56.1,29.75,North,360,0.0,2.0,92,0.00,,,0.03,Wunderground v.1.15,2013-05-24 15:50:00,
2013-05-24 11:55:00,58.4,56.1,29.75,NW,322,1.0,2.0,92,0.00,,,0.03,Wunderground v.1.15,2013-05-24 15:55:00,
2013-05-24 12:00:00,58.3,55.7,29.75,NW,323,1.0,1.0,91,0.00,,,0.03,Wunderground v.1.15,2013-05-24 16:00:00,
2013-05-24 12:10:00,58.1,56.4,29.76,NW,325,0.0,0.0,94,0.00,,,0.03,Wunderground v.1.15,2013-05-24 16:10:00,
2013-05-24 12:15:00,58.0,55.7,29.76,NW,326,1.0,1.0,92,0.00,,,0.03,Wunderground v.1.15,2013-05-24 16:15:00,
2013-05-24 12:20:00,57.6,54.4,29.76,NW,326,0.0,2.0,89,0.00,,,0.03,Wunderground v.1.15,2013-05-24 16:20:00,
2013-05-24 12:30:00,57.6,55.3,29.76,SSE,153,0.0,0.0,92,0.00,,,0.03,Wunderground v.1.15,2013-05-24 16:30:00,
2013-05-24 12:35:00,57.8,55.2,29.76,North,355,1.0,1.0,91,0.00,,,0.03,Wunderground v.1.15,2013-05-24 16:35:00,
2013-05-24 12:40:00,58.1,55.8,29.76,North,355,1.0,1.0,92,0.00,,,0.03,Wunderground v.1.15,2013-05-24 16:40:00,
2013-05-24 12:54:00,58.7,54.8,29.77,NE,40,2.0,2.0,87,0.00,,,0.03,Wunderground v.1.15,2013-05-24 16:54:00,
2013-05-24 13:00:00,58.9,53.4,29.77,North,5,2.0,3.0,82,0.00,,,0.03,Wunderground v.1.15,2013-05-24 17:00:00,
2013-05-24 13:05:00,58.7,51.9,29.77,North,10,4.0,4.0,78,0.00,,,0.03,Wunderground v.1.15,2013-05-24 17:05:00,
2013-05-24 13:15:00,58.7,53.5,29.78,NNW,332,3.0,5.0,83,0.00,,,0.03,Wunderground v.1.15,2013-05-24 17:15:00,
2013-05-24 13:20:00,58.6,53.5,29.78,NNW,342,2.0,2.0,83,0.00,,,0.03,Wunderground v.1.15,2013-05-24 17:20:00,
2013-05-24 13:25:00,58.4,54.5,29.78,WSW,251,1.0,2.0,87,0.00,,,0.03,Wunderground v.1.15,2013-05-24 17:25:00,
2013-05-24 13:34:00,58.0,52.5,29.79,NNW,344,2.0,2.0,82,0.00,,,0.03,Wunderground v.1.15,2013-05-24 17:34:00,
2013-05-24 13:40:00,57.8,52.0,29.79,NNW,342,3.0,3.0,81,0.00,,,0.03,Wunderground v.1.15,2013-05-24 17:40:00,
2013-05-24 13:45:00,57.3,51.9,29.79,WNW,296,3.0,3.0,82,0.00,,,0.03,Wunderground v.1.15,2013-05-24 17:45:00,
2013-05-24 13:50:00,56.9,51.5,29.79,NNW,336,3.0,3.0,82,0.00,,,0.03,Wunderground v.1.15,2013-05-24 17:50:00,
2013-05-24 14:00:00,56.3,51.2,29.80,WNW,286,2.0,2.0,83,0.00,,,0.03,Wunderground v.1.15,2013-05-24 18:00:00,
2013-05-24 14:05:00,56.0,51.2,29.80,North,355,1.0,2.0,84,0.00,,,0.03,Wunderground v.1.15,2013-05-24 18:05:00,
2013-05-24 14:10:00,55.7,50.9,29.81,NNW,327,2.0,2.0,84,0.00,,,0.03,Wunderground v.1.15,2013-05-24 18:10:00,
2013-05-24 14:20:00,55.4,50.3,29.80,NNE,33,1.0,1.0,83,0.00,,,0.03,Wunderground v.1.15,2013-05-24 18:20:00,
2013-05-24 14:25:00,55.3,49.9,29.80,NNW,346,2.0,7.0,82,0.00,,,0.03,Wunderground v.1.15,2013-05-24 18:25:00,
2013-05-24 14:30:00,55.1,50.4,29.80,SW,219,3.0,3.0,84,0.00,,,0.03,Wunderground v.1.15,2013-05-24 18:30:00,
2013-05-24 14:40:00,55.0,50.6,29.80,NNE,13,1.0,2.0,85,0.00,,,0.03,Wunderground v.1.15,2013-05-24 18:40:00,
2013-05-24 14:45:00,54.8,50.1,29.80,NNW,340,1.0,2.0,84,0.00,,,0.03,Wunderground v.1.15,2013-05-24 18:45:00,
2013-05-24 14:50:00,54.8,49.7,29.80,SW,225,2.0,2.0,83,0.00,,,0.03,Wunderground v.1.15,2013-05-24 18:50:00,
2013-05-24 15:00:00,54.8,49.7,29.80,East,84,1.0,1.0,83,0.00,,,0.03,Wunderground v.1.15,2013-05-24 19:00:00,
2013-05-24 15:05:00,54.8,49.1,29.81,NNW,340,2.0,2.0,81,0.00,,,0.03,Wunderground v.1.15,2013-05-24 19:05:00,
2013-05-24 15:15:00,54.7,49.0,29.81,North,360,1.0,11.0,81,0.00,,,0.03,Wunderground v.1.15,2013-05-24 19:15:00,
2013-05-24 15:20:00,54.5,49.1,29.81,North,355,2.0,2.0,82,0.00,,,0.03,Wunderground v.1.15,2013-05-24 19:20:00,
2013-05-24 15:25:00,54.5,49.4,29.81,SW,228,2.0,2.0,83,0.00,,,0.03,Wunderground v.1.15,2013-05-24 19:25:00,
2013-05-24 15:30:00,54.2,49.8,29.81,NW,315,1.0,1.0,85,0.00,,,0.03,Wunderground v.1.15,2013-05-24 19:30:00,
2013-05-24 15:40:00,53.8,48.4,29.82,WNW,303,2.0,2.0,82,0.00,,,0.03,Wunderground v.1.15,2013-05-24 19:40:00,
2013-05-24 15:45:00,53.6,48.9,29.82,NW,317,2.0,6.0,84,0.00,,,0.03,Wunderground v.1.15,2013-05-24 19:45:00,
2013-05-24 15:50:00,53.5,48.8,29.82,North,360,2.0,3.0,84,0.00,,,0.03,Wunderground v.1.15,2013-05-24 19:50:00,
2013-05-24 15:59:00,53.5,48.8,29.81,NNW,340,2.0,2.0,84,0.00,,,0.03,Wunderground v.1.15,2013-05-24 19:59:00,
2013-05-24 16:05:00,53.6,48.2,29.81,North,360,2.0,2.0,82,0.00,,,0.03,Wunderground v.1.15,2013-05-24 20:05:00,
2013-05-24 16:10:00,53.6,48.2,29.82,North,355,2.0,2.0,82,0.00,,,0.03,Wunderground v.1.15,2013-05-24 20:10:00,
2013-05-24 16:20:00,53.5,47.5,29.82,North,350,4.0,13.0,80,0.00,,,0.03,Wunderground v.1.15,2013-05-24 20:20:00,
2013-05-24 16:25:00,53.3,47.3,29.83,NW,320,4.0,13.0,80,0.00,,,0.03,Wunderground v.1.15,2013-05-24 20:25:00,
2013-05-24 16:30:00,53.3,47.6,29.82,NW,315,2.0,2.0,81,0.00,,,0.03,Wunderground v.1.15,2013-05-24 20:30:00,
2013-05-24 16:39:00,53.2,47.8,29.82,NNW,334,1.0,6.0,82,0.00,,,0.03,Wunderground v.1.15,2013-05-24 20:39:00,
2013-05-24 16:45:00,52.9,47.9,29.82,North,360,2.0,6.0,83,0.00,,,0.03,Wunderground v.1.15,2013-05-24 20:45:00,
2013-05-24 16:50:00,52.6,47.9,29.83,NNW,342,2.0,2.0,84,0.00,,,0.03,Wunderground v.1.15,2013-05-24 20:50:00,
2013-05-24 16:55:00,52.3,47.0,29.83,SW,234,2.0,2.0,82,0.00,,,0.03,Wunderground v.1.15,2013-05-24 20:55:00,
2013-05-24 17:05:00,51.7,46.7,29.83,North,355,4.0,7.0,83,0.00,,,0.03,Wunderground v.1.15,2013-05-24 21:05:00,
2013-05-24 17:10:00,51.7,46.4,29.83,NNW,335,3.0,3.0,82,0.00,,,0.03,Wunderground v.1.15,2013-05-24 21:10:00,
2013-05-24 17:15:00,51.7,46.7,29.83,West,275,3.0,3.0,83,0.00,,,0.03,Wunderground v.1.15,2013-05-24 21:15:00,
2013-05-24 17:25:00,51.6,46.6,29.83,NNW,344,2.0,3.0,83,0.00,,,0.03,Wunderground v.1.15,2013-05-24 21:25:00,
2013-05-24 17:30:00,51.4,46.1,29.83,North,350,2.0,2.0,82,0.00,,,0.03,Wunderground v.1.15,2013-05-24 21:30:00,
2013-05-24 17:35:00,51.3,46.0,29.84,East,87,2.0,2.0,82,0.00,,,0.03,Wunderground v.1.15,2013-05-24 21:35:00,
2013-05-24 17:40:00,51.1,46.1,29.84,SW,228,2.0,2.0,83,0.00,,,0.03,Wunderground v.1.15,2013-05-24 21:40:00,
2013-05-24 17:50:00,50.7,45.1,29.84,NNW,344,1.0,1.0,81,0.00,,,0.03,Wunderground v.1.15,2013-05-24 21:50:00,
2013-05-24 17:55:00,50.5,45.8,29.83,North,355,1.0,1.0,84,0.00,,,0.03,Wunderground v.1.15,2013-05-24 21:55:00,
2013-05-24 18:00:00,50.2,44.9,29.83,North,5,2.0,2.0,82,0.00,,,0.03,Wunderground v.1.15,2013-05-24 22:00:00,
2013-05-24 18:10:00,50.1,45.8,29.83,NNW,343,1.0,1.0,85,0.00,,,0.03,Wunderground v.1.15,2013-05-24 22:10:00,
2013-05-24 18:15:00,49.9,46.2,29.84,NNE,30,1.0,1.0,87,0.00,,,0.03,Wunderground v.1.15,2013-05-24 22:15:00,
2013-05-24 18:20:00,49.6,45.3,29.84,NNW,338,1.0,1.0,85,0.00,,,0.03,Wunderground v.1.15,2013-05-24 22:20:00,
2013-05-24 18:30:00,49.2,45.8,29.84,North,355,1.0,10.0,88,0.00,,,0.03,Wunderground v.1.15,2013-05-24 22:30:00,
2013-05-24 18:35:00,49.2,45.5,29.84,SW,229,2.0,10.0,87,0.00,,,0.03,Wunderground v.1.15,2013-05-24 22:35:00,
2013-05-24 18:40:00,49.1,45.7,29.85,ENE,76,2.0,2.0,88,0.00,,,0.03,Wunderground v.1.15,2013-05-24 22:40:00,
2013-05-24 18:50:00,48.8,45.7,29.85,South,191,1.0,1.0,89,0.00,,,0.03,Wunderground v.1.15,2013-05-24 22:50:00,
2013-05-24 18:55:00,48.6,45.8,29.85,WNW,292,1.0,2.0,90,0.00,,,0.03,Wunderground v.1.15,2013-05-24 22:55:00,
2013-05-24 19:00:00,48.3,45.5,29.86,NNW,329,1.0,1.0,90,0.00,,,0.03,Wunderground v.1.15,2013-05-24 23:00:00,
2013-05-24 19:10:00,48.2,45.4,29.86,North,355,1.0,1.0,90,0.00,,,0.03,Wunderground v.1.15,2013-05-24 23:10:00,
2013-05-24 19:15:00,48.2,45.4,29.86,NW,317,1.0,4.0,90,0.00,,,0.03,Wunderground v.1.15,2013-05-24 23:15:00,
2013-05-24 19:20:00,48.0,44.3,29.86,NW,325,2.0,2.0,87,0.00,,,0.03,Wunderground v.1.15,2013-05-24 23:20:00,
2013-05-24 19:25:00,48.0,44.6,29.86,NNW,340,3.0,3.0,88,0.00,,,0.03,Wunderground v.1.15,2013-05-24 23:25:00,
2013-05-24 19:35:00,48.0,44.0,29.87,NNW,340,2.0,4.0,86,0.00,,,0.03,Wunderground v.1.15,2013-05-24 23:35:00,
2013-05-24 19:40:00,48.0,44.0,29.87,NNW,348,3.0,3.0,86,0.00,,,0.03,Wunderground v.1.15,2013-05-24 23:40:00,
2013-05-24 19:45:00,47.9,43.6,29.87,ENE,59,2.0,3.0,85,0.00,,,0.03,Wunderground v.1.15,2013-05-24 23:45:00,
2013-05-24 19:50:00,47.9,43.9,29.87,East,81,1.0,1.0,86,0.00,,,0.03,Wunderground v.1.15,2013-05-24 23:50:00,
2013-05-24 20:00:00,47.7,43.1,29.87,NE,44,3.0,10.0,84,0.00,,,0.03,Wunderground v.1.15,2013-05-25 00:00:00,
2013-05-24 20:10:00,47.6,43.0,29.87,NNW,329,4.0,4.0,84,0.00,,,0.03,Wunderground v.1.15,2013-05-25 00:10:00,
2013-05-24 20:15:00,47.6,43.0,29.88,North,351,3.0,6.0,84,0.00,,,0.03,Wunderground v.1.15,2013-05-25 00:15:00,
2013-05-24 20:20:00,47.6,43.0,29.88,NNE,24,2.0,9.0,84,0.00,,,0.03,Wunderground v.1.15,2013-05-25 00:20:00,
2013-05-24 20:25:00,47.6,43.6,29.88,NE,42,3.0,9.0,86,0.00,,,0.03,Wunderground v.1.15,2013-05-25 00:25:00,
2013-05-24 20:30:00,47.6,43.0,29.88,NNW,331,2.0,2.0,84,0.00,,,0.03,Wunderground v.1.15,2013-05-25 00:30:00,
2013-05-24 20:40:00,47.6,43.0,29.88,North,355,3.0,7.0,84,0.00,,,0.03,Wunderground v.1.15,2013-05-25 00:40:00,
2013-05-24 20:45:00,47.4,42.8,29.88,NW,323,4.0,7.0,84,0.00,,,0.03,Wunderground v.1.15,2013-05-25 00:45:00,
2013-05-24 20:50:00,47.4,42.8,29.88,North,360,3.0,3.0,84,0.00,,,0.03,Wunderground v.1.15,2013-05-25 00:50:00,
2013-05-24 20:55:00,47.4,43.1,29.88,NNW,348,1.0,3.0,85,0.00,,,0.03,Wunderground v.1.15,2013-05-25 00:55:00,
2013-05-24 21:05:00,47.3,42.7,29.89,North,5,1.0,2.0,84,0.00,,,0.03,Wunderground v.1.15,2013-05-25 01:05:00,
2013-05-24 21:15:00,47.3,43.3,29.89,ENE,63,2.0,2.0,86,0.00,,,0.03,Wunderground v.1.15,2013-05-25 01:15:00,
2013-05-24 21:20:00,47.1,43.1,29.89,SSW,208,2.0,2.0,86,0.00,,,0.03,Wunderground v.1.15,2013-05-25 01:20:00,
2013-05-24 21:25:00,47.0,42.7,29.89,WNW,303,3.0,3.0,85,0.00,,,0.03,Wunderground v.1.15,2013-05-25 01:25:00,
2013-05-24 21:34:00,47.0,42.4,29.89,NE,42,2.0,4.0,84,0.00,,,0.03,Wunderground v.1.15,2013-05-25 01:34:00,
2013-05-24 21:40:00,47.0,42.7,29.89,NE,35,2.0,2.0,85,0.00,,,0.03,Wunderground v.1.15,2013-05-25 01:40:00,
2013-05-24 21:45:00,47.0,42.7,29.90,NNE,18,2.0,5.0,85,0.00,,,0.03,Wunderground v.1.15,2013-05-25 01:45:00,
2013-05-24 21:50:00,47.0,43.0,29.90,NNE,32,2.0,2.0,86,0.00,,,0.03,Wunderground v.1.15,2013-05-25 01:50:00,
2013-05-24 21:59:00,46.8,42.2,29.90,ENE,71,3.0,3.0,84,0.00,,,0.03,Wunderground v.1.15,2013-05-25 01:59:00,
2013-05-24 22:05:00,46.8,42.5,29.90,NNW,329,2.0,3.0,85,0.00,,,0.03,Wunderground v.1.15,2013-05-25 02:05:00,
2013-05-24 22:10:00,46.7,42.7,29.90,WNW,298,1.0,1.0,86,0.00,,,0.04,Wunderground v.1.15,2013-05-25 02:10:00,
2013-05-24 22:15:00,46.5,43.1,29.89,North,355,2.0,10.0,88,0.12,,,0.05,Wunderground v.1.15,2013-05-25 02:15:00,
2013-05-24 22:25:00,46.0,43.8,29.89,NNW,336,2.0,2.0,92,0.18,,,0.08,Wunderground v.1.15,2013-05-25 02:25:00,
2013-05-24 22:30:00,45.8,43.9,29.90,East,84,1.0,1.0,93,0.13,,,0.09,Wunderground v.1.15,2013-05-25 02:30:00,
2013-05-24 22:35:00,45.5,43.3,29.89,North,355,1.0,3.0,92,0.07,,,0.10,Wunderground v.1.15,2013-05-25 02:35:00,
2013-05-24 22:44:00,45.4,44.1,29.90,NNW,329,1.0,4.0,95,0.10,,,0.11,Wunderground v.1.15,2013-05-25 02:44:00,
2013-05-24 22:50:00,45.2,43.6,29.90,SW,230,1.0,4.0,94,0.06,,,0.11,Wunderground v.1.15,2013-05-25 02:50:00,
2013-05-24 22:55:00,45.2,43.6,29.90,North,355,2.0,4.0,94,0.04,,,0.11,Wunderground v.1.15,2013-05-25 02:55:00,
2013-05-24 23:00:00,45.2,43.9,29.90,NNW,336,2.0,3.0,95,0.04,,,0.12,Wunderground v.1.15,2013-05-25 03:00:00,
2013-05-24 23:10:00,45.2,44.1,29.90,NW,307,1.0,1.0,96,0.07,,,0.13,Wunderground v.1.15,2013-05-25 03:10:00,
2013-05-24 23:15:00,45.2,43.9,29.90,SW,217,1.0,1.0,95,0.09,,,0.14,Wunderground v.1.15,2013-05-25 03:15:00,
2013-05-24 23:24:00,45.2,43.9,29.89,NW,317,1.0,1.0,95,0.15,,,0.16,Wunderground v.1.15,2013-05-25 03:24:00,
2013-05-24 23:30:00,45.2,44.1,29.89,WNW,293,1.0,1.0,96,0.14,,,0.18,Wunderground v.1.15,2013-05-25 03:30:00,
2013-05-24 23:35:00,45.1,44.0,29.89,North,355,0.0,1.0,96,0.10,,,0.18,Wunderground v.1.15,2013-05-25 03:35:00,
2013-05-24 23:40:00,45.1,44.0,29.89,North,355,0.0,2.0,96,0.08,,,0.19,Wunderground v.1.15,2013-05-25 03:40:00,
2013-05-24 23:50:00,45.1,44.0,29.89,North,360,2.0,2.0,96,0.05,,,0.19,Wunderground v.1.15,2013-05-25 03:50:00,
2013-05-24 23:55:00,45.1,44.0,29.89,East,83,1.0,2.0,96,0.04,,,0.20,Wunderground v.1.15,2013-05-25 03:55:00,